{"data":{"norad_id":64140,"epoch":"2026-05-24T23:51:45.913824Z","epoch_age_seconds":85956,"freshness":"FRESH","line1":"1 64140U 25111T   26144.99428141  .00007440  00000+0  27959-3 0  9999","line2":"2 64140  43.0030   6.9020 0001284 270.9009  89.1696 15.27582241 57138","mean_motion":15.27582241,"eccentricity":0.0001284,"inclination_deg":43.003,"raan_deg":6.902,"arg_perigee_deg":270.9009,"mean_anomaly_deg":89.1696,"bstar":0.00027959,"rev_number":5713,"period_min":94.266610422057,"perigee_km":482.16141025454,"apogee_km":483.92336112078,"semimajor_km":6861.1793856877,"source":"CELESTRAK","updated_at":"2026-05-25T13:38:20.275657Z"}}